Regional Weather Roundup
Issued by NWS

Home | Current Version | Previous Version | Graphics & Text | Print | Product List | Glossary On
Versions: 1 2 3 4 5 6 7 8 9 10 11 12 13 14 15 16 17 18 19 20 21 22 23 24 25 26 27 28 29 30 31 32 33 34 35 36 37 38 39 40 41 42 43 44 45 46 47 48 49 50
000
ASUS43 KDTX 200201
RWRMI
MICHIGAN HOURLY REGIONAL WEATHER ROUNDUP
NATIONAL WEATHER SERVICE DETROIT/PONTIAC MI
900 PM EST MON FEB 19 2018

NOTE: "FAIR" INDICATES FEW OR NO CLOUDS BELOW 12,000 FEET WITH NO
SIGNIFICANT WEATHER AND/OR OBSTRUCTION TO VISIBILITY.

MIZ047>049-052>055-059>063-066>070-074>076-081>083-200300-
SOUTHEAST LOWER MICHIGAN

CITY           SKY/WX    TMP DP  RH WIND       PRES   REMARKS
ADRIAN         LGT RAIN  52  51  97 SW8       29.99R
ALMA           LGT RAIN  38  38 100 NE6       29.92R WCI  33
ANN ARBOR      LGT RAIN  53  53 100 S17G26    29.94F
BAD AXE        LGT RAIN  36  36 100 E3        29.95R
CARO           RAIN      38  38 100 E3        29.92F
DETROIT CITY   LGT RAIN  57  54  89 SW17G30   29.96R
DETROIT        LGT RAIN  58  54  86 SW30G41   29.97R
FLINT          LGT RAIN  41  41 100 NE3       29.93R VSB 3/4
GROSSE ILE     LGT RAIN  56  55  96 W18G26    29.98R
HILLSDALE      LGT RAIN  55  52  88 SW16G24   29.95F
HOWELL         CLOUDY    55  54  94 SW10      29.92R

CITY           SKY/WX    TMP DP  RH WIND       PRES   REMARKS
JACKSON        CLOUDY    57  55  93 S20G26    29.92R
LAMBERTVILLE   LGT RAIN  57  54  89 SW7       29.99S
LANSING        CLOUDY    54  53  97 SW14      29.90S
LAPEER         RAIN      40  40 100 N6        29.93R
MASON          CLOUDY    57  52  83 SW10G22   29.92R
MT. CLEMENS    MOCLDY    54  54 100 SW12      29.94R
PONTIAC        CLOUDY    54  54 100 SW9       29.93R
PORT HOPE        N/A     33  33 100 E6        29.96R WCI  28
PORT HURON     LGT RAIN  50  48  93 S8        29.94S
TRI CITIES     LGT RAIN  37  36  96 NE10      29.93S VSB 1   WCI  30
MIDLAND        RAIN      37  37 100 NE7       29.94R WCI  31
TROY           LGT RAIN  55  54  96 SW13      29.96S
SAGINAW HB     RAIN      34  34 100 NE5       29.92F WCI  30
$$
MIZ043>046-050>051-056>058-064>065-071>073-077>080-200300-
SOUTHWEST LOWER MICHIGAN

CITY           SKY/WX    TMP DP  RH WIND       PRES   REMARKS
BATTLE CREEK   CLOUDY    54  53  97 S15       29.91R
BENTON HARBOR  CLOUDY    57  53  86 S14       29.87S
BIG RAPIDS     LGT SNOW  37  35  92 E5        29.88F WCI  33
COLDWATER      LGT RAIN  57  57 100 S10G17    29.91F
FREMONT        LGT RAIN  39  37  92 E10       29.86R WCI  32
HOLLAND        LGT RAIN  58  54  86 SW23G36   29.85R
GRAND RAPIDS   LGT RAIN  41  39  93 NE5       29.87S FOG
IONIA          RAIN      38  38 100 E5        29.88S WCI  34
KALAMAZOO      CLOUDY    54  52  93 S16       29.91R
LUDINGTON      CLOUDY    37  37 100 E7        29.83S WCI  32
MARSHALL       CLOUDY    56  55  99 SW13      29.91S
MOUNT PLEASANT LGT RAIN  38  37  94 NE3       29.91S
MUSKEGON       LGT RAIN  40  38  93 E6        29.86R VSB 3/4
SOUTH HAVEN    CLOUDY    58  55  89 S14G25    29.86S
$$
MIZ016>042-200300-
NORTHERN LOWER MICHIGAN

CITY           SKY/WX    TMP DP  RH WIND       PRES   REMARKS
ALPENA         LGT RAIN  34  34 100 E9        29.99S FOG     WCI  27
BEAVER ISLAND  LGT SNOW  33  32  94 E13G21    29.95F WCI  24
BELLAIRE       LGT SNOW  36  35  97 NE7       29.93R WCI  30
CADILLAC       LGT RAIN  35  34  98 E7        29.87S WCI  29
CHARLEVOIX     DRIZZLE   34  34  99 E8        29.97S WCI  27
FRANKFORT      CLOUDY    37  37  99 E7        29.86F FOG     WCI  32
GAYLORD        MIX PCPN  32  32 100 NE5       29.94R FOG     WCI  27
GRAYLING       CLOUDY    33  33  99 E12       29.90F FOG     WCI  25
HARBOR SPRINGS LGT SNOW  33  32  99 E16       29.95F WCI  22
HOUGHTON LAKE  CLOUDY    35  34  96 E10       29.90F FOG     WCI  27
MANISTEE       CLOUDY    37  36  96 E9        29.85F WCI  30
OSCODA         MIX PCPN  33  32  97 NE3       29.98R
PELLSTON       LGT RAIN  34  32  92 E10G21    29.98S FOG     WCI  26
ROGERS CITY    LGT RAIN  33  32  98 E10G16    30.02S WCI  24
TRAVERSE CITY  CLOUDY    36  34  92 NE5       29.90S FOG     WCI  32
$$
MIZ007>008-015-200300-
EASTERN UPPER MICHIGAN

CITY           SKY/WX    TMP DP  RH WIND       PRES   REMARKS
KINROSS        FLURRIES  22  19  89 NE13      30.02R WCI  10
MACKINAC ISLAN CLOUDY    32  31  95 E17G23    29.98F FOG     WCI  21
NEWBERRY       CLOUDY    21  20  97 NE10      29.99F WCI  10
S. S. MARIE    FLURRIES  22  14  71 E8G17     30.04R WCI  12
MUNISING         N/A     25  23  92 NE9       29.99F WCI  15
$$
MIZ004>006-011>014-085-200300-
CENTRAL UPPER MICHIGAN

CITY           SKY/WX    TMP DP  RH WIND       PRES   REMARKS
MANISTIQUE     CLOUDY    26  25  94 N10       29.95F WCI  16
ESCANABA       LGT SNOW  25  22  88 N8        29.95F FOG     WCI  16
MENOMINEE      CLOUDY    27  25  92 NE17G23   29.90F FOG     WCI  14
SAWYER-GWINN   LGT SNOW  21  19  93 NE16      29.97S WCI   7
$$
MIZ001>003-009>011-084-200300-
WESTERN UPPER MICHIGAN

CITY           SKY/WX    TMP DP  RH WIND       PRES   REMARKS
IRON MOUNTAIN  FRZ RAIN  22  18  85 VRB7      29.90F FOG     WCI  13
HOUGHTON       LGT SNOW  18  11  74 NE15      30.02F WCI   4
COPPER HARBOR    N/A     19  15  84 E10G22    30.10S WCI   7
IRONWOOD       LGT SNOW  15  12  88 NE8       30.00S FOG     WCI   4
$$

ABBREVIATIONS USED IN REMARKS
   TC - TEMPERATURE IN CELSIUS
  WCI - WIND CHILL INDEX
   HX - HEAT INDEX
  VSB - VISIBILITY





USA.gov is the U.S. government's official web portal to all federal, state and local government web resources and services.